sat.trackr.live / text

‹ back to catalog

CENTISPACE-1 S5

NORAD 54020 · 2022-126A

PAYLOAD ACTIVE UNKNOWN

§ Identity

Operator
Country
PRC
Launch date
2022-10-07
Launch site
SEAL
Launch vehicle
Mass (kg)
RCS (m²)

External: N2YO · Heavens-Above · Gunter

§ Orbital elements

Epoch: 2026-09-20T22:27:55.067328Z

Period
98.42 min
Inclination
54.9987°
Eccentricity
0.0010010
Mean motion
14.63148813 rev/d
Perigee alt
676.0 km
Apogee alt
690.1 km
Semi-major
7,061.2 km
B*
1.1751e-4
RAAN
189.7594°
Arg perigee
289.8381°
Mean anomaly
70.1533°
Rev number
21,105

§ Raw data

CENTISPACE-1 S51 54020U 22126A   26263.93605402  .00000420  00000+0  11751-3 0  99952 54020  54.9987 189.7594 0010010 289.8381  70.1533 14.63148813211056

JSON: /api/v1/satellites/54020 · /tle

For live sub-satellite position, see the globe view (requires WebGL).

§ Visibility from observer

Set your observer location to see the next 7 days of passes ≥ 10°. The values pass through the URL so the page stays shareable.

No JS? Fill the form by hand. The geolocation button needs JavaScript.

§ Radio — SatNOGS DB

ModeDescriptionDownlinkUplink
BPSK S-band telemetry 2.208 GHz
FM Telemetry (inactive) 2.208 GHz

2 transmitters · refreshed weekly from db.satnogs.org